N3PL Weather Reports


time (UTC)temp
C
wind
direction
speed
KPH
gust
KPH
rain 1hr
cm
rain 24hr
cm
rain mn
cm
humidity
%
barometer
mb
20260510164500 25 280 0.0 0.0 0.00 0.00 0.00 43 1008.3
20260510164053 25 280 0.0 0.0 0.00 0.00 0.00 43 1008.3
20260510163558 25 311 0.0 0.0 0.00 0.00 0.00 41 1008.3
20260510163101 25 322 0.0 0.0 0.00 0.00 0.00 43 1008.3
20260510162607 25 322 0.0 0.0 0.00 0.00 0.00 43 1008.3
20260510162005 25 319 0.0 0.0 0.00 0.00 0.00 43 1008.3
20260510161510 24 295 0.0 0.0 0.00 0.00 0.00 44 1008.3
20260510161059 24 295 0.0 0.0 0.00 0.00 0.00 43 1008.4
20260510160602 24 295 0.0 0.0 0.00 0.00 0.00 45 1008.4
20260510160118 23 295 0.0 0.0 0.00 0.00 0.00 47 1008.4
20260510155510 23 295 0.0 0.0 0.00 0.00 0.00 46 1008.4
20260510155100 23 284 0.0 0.0 0.00 0.00 0.00 46 1008.4
20260510154624 23 309 0.0 0.0 0.00 0.00 0.00 46 1008.4
20260510154001 22 319 0.0 0.0 0.00 0.00 0.00 48 1008.6
20260510153602 22 304 0.0 0.0 0.00 0.00 0.00 47 1008.6
20260510153008 22 316 0.0 0.0 0.00 0.00 0.00 50 1008.6
20260510152559 22 326 0.0 0.0 0.00 0.00 0.00 50 1008.5
20260510152102 21 274 0.0 0.0 0.00 0.00 0.00 53 1008.5
20260510151504 21 264 0.0 0.0 0.00 0.00 0.00 51 1008.5
20260510151007 22 319 0.0 0.0 0.00 0.00 0.00 52 1008.4
20260510150600 21 301 0.0 0.0 0.00 0.00 0.00 56 1008.4
20260510150128 21 299 0.0 0.0 0.00 0.00 0.00 56 1008.4
20260510145606 21 296 0.0 0.0 0.00 0.00 0.00 56 1008.4
20260510145002 21 296 0.0 0.0 0.00 0.00 0.00 58 1008.4
20260510144612 20 296 0.0 0.0 0.00 0.00 0.00 62 1008.4
20260510144100 20 296 0.0 0.0 0.00 0.00 0.00 63 1008.6
20260510143603 19 296 0.0 0.0 0.00 0.00 0.00 65 1008.6
20260510143001 18 296 0.0 0.0 0.00 0.00 0.00 66 1008.6
20260510142554 18 329 0.0 0.0 0.00 0.00 0.00 70 1008.8
20260510142059 17 329 0.0 0.0 0.00 0.00 0.00 73 1008.8
20260510141600 17 328 0.0 0.0 0.00 0.00 0.00 74 1008.8
20260510141101 17 0 0.0 0.0 0.00 0.00 0.00 77 1008.7
20260510140606 16 0 0.0 0.0 0.00 0.00 0.00 81 1008.7
20260510140056 16 0 0.0 0.0 0.00 0.00 0.00 86 1008.7
20260510135556 15 0 0.0 0.0 0.00 0.00 0.00 88 1008.6
20260510135105 15 0 0.0 0.0 0.00 0.00 0.00 92 1008.6
20260510134553 15 274 0.0 0.0 0.00 0.00 0.00 94 1008.6
20260510134054 14 285 0.0 0.0 0.00 0.00 0.00 95 1008.8
20260510133603 14 285 0.0 0.0 0.00 0.00 0.00 97 1008.8
20260510133105 13 285 0.0 0.0 0.00 0.00 0.00 98 1008.8
20260510132503 13 285 0.0 0.0 0.00 0.00 0.00 98 1008.7
20260510132006 13 285 0.0 0.0 0.00 0.00 0.00 98 1008.7
20260510131510 13 285 0.0 0.0 0.00 0.00 0.00 98 1008.7
20260510131102 12 285 0.0 0.0 0.00 0.00 0.00 98 1008.9
20260510130550 12 285 0.0 0.0 0.00 0.00 0.00 98 1008.9
20260510130053 12 285 0.0 0.0 0.00 0.00 0.00 98 1008.9
20260510125556 12 285 0.0 0.0 0.00 0.00 0.00 98 1008.9
20260510125103 11 285 0.0 0.0 0.00 0.00 0.00 98 1008.9
20260510124606 11 285 0.0 0.0 0.00 0.00 0.00 98 1008.9
20260510124005 11 285 0.0 0.0 0.00 0.00 0.00 98 1008.8
20260510123600 11 285 0.0 0.0 0.00 0.00 0.00 98 1008.8
20260510123107 11 285 0.0 0.0 0.00 0.00 0.00 98 1008.8
20260510122605 11 285 0.0 0.0 0.00 0.00 0.00 98 1008.7
20260510122005 11 285 0.0 0.0 0.00 0.00 0.00 98 1008.7
20260510121558 11 285 0.0 0.0 0.00 0.00 0.00 98 1008.7
20260510121101 10 285 0.0 0.0 0.00 0.00 0.00 98 1008.3
20260510120603 10 285 0.0 0.0 0.00 0.00 0.00 98 1008.3
20260510120104 10 285 0.0 0.0 0.00 0.00 0.00 98 1008.3
20260510115501 10 285 0.0 0.0 0.00 0.00 0.00 98 1008.1
20260510115005 10 285 0.0 0.0 0.00 0.00 0.00 98 1008.1
20260510114508 10 285 0.0 0.0 0.00 0.00 0.00 98 1008.1
20260510114101 10 285 0.0 0.0 0.00 0.00 0.00 98 1007.9
20260510113547 10 285 0.0 0.0 0.00 0.00 0.00 98 1007.9
20260510113034 10 285 0.0 0.0 0.00 0.00 0.00 98 1007.9
20260510112538 10 285 0.0 0.0 0.00 0.00 0.00 98 1008.0
20260510112040 9 285 0.0 0.0 0.00 0.00 0.00 98 1008.0
20260510111549 9 285 0.0 0.0 0.00 0.00 0.00 97 1008.0
20260510111049 9 285 0.0 0.0 0.00 0.00 0.00 97 1007.9
20260510110555 9 285 0.0 0.0 0.00 0.00 0.00 97 1007.9
20260510105504 9 285 0.0 0.0 0.00 0.00 0.00 97 1007.6
20260510105008 9 285 0.0 0.0 0.00 0.00 0.00 97 1007.6
20260510104511 9 285 0.0 0.0 0.00 0.00 0.00 97 1007.6
20260510104104 9 285 0.0 0.0 0.00 0.00 0.00 97 1007.4
20260510103504 9 285 0.0 0.0 0.00 0.00 0.00 97 1007.4
20260510103004 8 285 0.0 0.0 0.00 0.00 0.00 97 1007.4
20260510102509 8 285 0.0 0.0 0.00 0.00 0.00 97 1007.1
20260510102101 8 285 0.0 0.0 0.00 0.00 0.00 97 1007.1
20260510101604 8 285 0.0 0.0 0.00 0.00 0.00 97 1007.1
20260510101005 8 285 0.0 0.0 0.00 0.00 0.00 97 1007.3
20260510100556 8 285 0.0 0.0 0.00 0.00 0.00 97 1007.3
20260510100059 8 285 0.0 0.0 0.00 0.00 0.00 97 1007.3
20260510095602 8 285 0.0 0.0 0.00 0.00 0.00 97 1006.9
20260510095052 8 285 0.0 0.0 0.00 0.00 0.00 97 1006.9
20260510094609 8 285 0.0 0.0 0.00 0.00 0.00 97 1006.9
20260510094057 8 285 0.0 0.0 0.00 0.00 0.00 97 1006.9
20260510093601 8 285 0.0 0.0 0.00 0.00 0.00 97 1006.9
20260510093105 8 285 0.0 0.0 0.00 0.00 0.00 97 1006.9
20260510092503 8 285 0.0 0.0 0.00 0.00 0.00 97 1007.0
20260510092006 8 285 0.0 0.0 0.00 0.00 0.00 97 1007.0
20260510091509 8 285 0.0 0.0 0.00 0.00 0.00 97 1007.0
20260510091012 8 285 0.0 0.0 0.00 0.00 0.00 97 1006.8
20260510090515 8 285 0.0 0.0 0.00 0.00 0.00 96 1006.8
20260510090005 8 285 0.0 0.0 0.00 0.00 0.00 96 1006.8
20260510085556 8 285 0.0 0.0 0.00 0.00 0.00 96 1006.9
20260510085103 8 52 0.0 0.0 0.00 0.00 0.00 96 1006.9
20260510084618 8 285 0.0 0.0 0.00 0.00 0.00 96 1006.9
20260510084056 8 37 0.0 0.0 0.00 0.00 0.00 97 1006.8
20260510083602 8 288 0.0 0.0 0.00 0.00 0.00 96 1006.8
20260510083118 8 291 0.0 0.0 0.00 0.00 0.00 96 1006.8
20260510082501 7 294 0.0 0.0 0.00 0.00 0.00 95 1006.4
20260510082004 8 326 0.0 0.0 0.00 0.00 0.00 95 1006.4
20260510081514 8 326 0.0 0.0 0.00 0.00 0.00 96 1006.4
20260510081010 8 326 0.0 0.0 0.00 0.00 0.00 96 1006.4
20260510080604 8 326 0.0 0.0 0.00 0.00 0.00 95 1006.4
20260510080109 8 326 0.0 0.0 0.00 0.00 0.00 95 1006.4
20260510075506 7 326 0.0 0.0 0.00 0.00 0.00 95 1006.3
20260510075100 7 326 0.0 0.0 0.00 0.00 0.00 95 1006.3
20260510074604 8 326 0.0 0.0 0.00 0.00 0.00 95 1006.3
20260510074105 8 326 0.0 0.0 0.00 0.00 0.00 94 1006.3
20260510073503 8 326 0.0 0.0 0.00 0.00 0.00 95 1006.3
20260510073005 8 326 0.0 0.0 0.00 0.00 0.00 95 1006.3
20260510072559 8 326 0.0 0.0 0.00 0.00 0.00 95 1006.1
20260510072102 8 326 0.0 0.0 0.00 0.00 0.00 95 1006.1
20260510071604 8 326 0.0 0.0 0.00 0.00 0.00 95 1006.1
20260510071001 8 326 0.0 0.0 0.00 0.00 0.00 95 1005.8
20260510070555 8 326 0.0 0.0 0.00 0.00 0.00 94 1005.8
20260510070103 8 326 0.0 0.0 0.00 0.00 0.00 94 1005.8
20260510065607 8 326 0.0 0.0 0.00 0.00 0.00 94 1005.7
20260510065054 8 326 0.0 0.0 0.00 0.00 0.00 94 1005.7
20260510064600 8 326 0.0 0.0 0.00 0.00 0.00 94 1005.7
20260510064059 8 326 0.0 0.0 0.00 0.00 0.00 94 1005.8
20260510063602 8 326 0.0 0.0 0.00 0.00 0.00 94 1005.8
20260510063106 8 326 0.0 0.0 0.00 0.00 0.00 94 1005.8
20260510062505 8 326 0.0 0.0 0.00 0.00 0.00 94 1006.0
20260510062007 8 326 0.0 0.0 0.00 0.00 0.00 94 1006.0
20260510061605 8 326 0.0 0.0 0.00 0.00 0.00 94 1006.0
20260510061109 8 326 0.0 0.0 0.00 0.00 0.00 94 1005.9
20260510060503 8 326 0.0 0.0 0.00 0.00 0.00 94 1005.9
20260510060007 8 326 0.0 0.0 0.00 0.00 0.00 94 1005.9
20260510055507 8 326 0.0 0.0 0.00 0.00 0.00 94 1006.1
20260510055103 8 326 0.0 0.0 0.00 0.00 0.00 94 1006.1
20260510054504 8 326 0.0 0.0 0.00 0.00 0.00 94 1006.1
20260510054007 8 326 0.0 0.0 0.00 0.00 0.00 94 1006.2
20260510053600 8 326 0.0 0.0 0.00 0.00 0.00 94 1006.2
20260510053102 8 326 0.0 0.0 0.00 0.00 0.00 94 1006.2
20260510052504 8 326 0.0 0.0 0.00 0.00 0.00 94 1006.3
20260510052007 8 326 0.0 0.0 0.00 0.00 0.00 94 1006.3
20260510051600 9 326 0.0 0.0 0.00 0.00 0.00 94 1006.3
20260510051104 9 326 0.0 0.0 0.00 0.00 0.00 94 1006.3
20260510050504 9 326 0.0 0.0 0.00 0.00 0.00 94 1006.3
20260510050113 9 326 0.0 0.0 0.00 0.00 0.00 93 1006.3
20260510045554 9 326 0.0 0.0 0.00 0.00 0.00 94 1006.4
20260510045056 9 326 0.0 0.0 0.00 0.00 0.00 94 1006.4
20260510044501 9 326 0.0 0.0 0.00 0.00 0.00 93 1006.4
20260510044058 9 326 0.0 0.0 0.00 0.00 0.00 93 1006.4
20260510043557 9 326 0.0 0.0 0.00 0.00 0.00 93 1006.4
20260510043112 9 326 0.0 0.0 0.00 0.00 0.00 93 1006.4
20260510042601 9 326 0.0 0.0 0.00 0.00 0.00 93 1006.5
20260510042105 10 326 0.0 0.0 0.00 0.00 0.00 93 1006.5
20260510041507 10 326 0.0 0.0 0.00 0.00 0.00 93 1006.5
20260510041013 10 326 0.0 0.0 0.00 0.00 0.00 93 1006.6
20260510040604 10 326 0.0 0.0 0.00 0.00 0.00 93 1006.6
20260510040004 10 326 0.0 0.0 0.00 0.00 0.00 93 1006.6
20260510035506 10 326 0.0 0.0 0.00 0.00 0.00 92 1006.4
20260510035103 10 326 0.0 0.0 0.00 0.00 0.00 92 1006.4
20260510034604 10 326 0.0 0.0 0.00 0.00 0.00 92 1006.4
20260510034106 10 326 0.0 0.0 0.00 0.00 0.00 92 1006.4
20260510033501 10 326 0.0 0.0 0.00 0.00 0.00 92 1006.4
20260510033004 10 326 0.0 0.0 0.00 0.00 0.00 92 1006.4
20260510032508 10 326 0.0 0.0 0.00 0.00 0.00 92 1006.2
20260510032009 10 326 0.0 0.0 0.00 0.00 0.00 92 1006.2
20260510031513 10 326 0.0 0.0 0.00 0.00 0.00 92 1006.2
20260510031105 10 326 0.0 0.0 0.00 0.00 0.00 91 1006.1
20260510030554 10 326 0.0 0.0 0.00 0.00 0.00 91 1006.1
20260510030104 10 326 0.0 0.0 0.00 0.00 0.00 91 1006.1
20260510025502 10 326 0.0 0.0 0.00 0.00 0.00 91 1006.0
20260510025007 11 326 0.0 0.0 0.00 0.00 0.00 91 1006.0
20260510024509 11 326 0.0 0.0 0.00 0.00 0.00 90 1006.0
20260510024011 11 326 0.0 0.0 0.00 0.00 0.00 90 1006.0
20260510023603 11 326 0.0 0.0 0.00 0.00 0.00 90 1006.0
20260510023001 11 326 0.0 0.0 0.00 0.00 0.00 90 1006.0
20260510022504 11 326 0.0 0.0 0.00 0.00 0.00 90 1006.1
20260510022056 11 326 0.0 0.0 0.00 0.00 0.00 90 1006.1
20260510021600 11 326 0.0 0.0 0.00 0.00 0.00 89 1006.1
20260510021101 11 326 0.0 0.0 0.00 0.00 0.00 89 1006.0
20260510020607 11 326 0.0 0.0 0.00 0.00 0.00 89 1006.0
20260510020053 11 326 0.0 0.0 0.00 0.00 0.00 89 1006.0
20260510015554 11 326 0.0 0.0 0.00 0.00 0.00 89 1005.8
20260510015057 11 326 0.0 0.0 0.00 0.00 0.00 88 1005.8
20260510014605 11 326 0.0 0.0 0.00 0.00 0.00 88 1005.8
20260510014001 11 326 0.0 0.0 0.00 0.00 0.00 88 1005.7
20260510013504 12 326 0.0 0.0 0.00 0.00 0.00 88 1005.7
20260510013006 12 326 0.0 0.0 0.00 0.00 0.00 87 1005.7
20260510012558 12 326 0.0 0.0 0.00 0.00 0.00 87 1005.7
20260510012101 12 326 0.0 0.0 0.00 0.00 0.00 87 1005.7
20260510011604 12 326 0.0 0.0 0.00 0.00 0.00 87 1005.7
20260510011001 12 326 0.0 0.0 0.00 0.00 0.00 86 1005.4
20260510010504 12 326 0.0 0.0 0.00 0.00 0.00 86 1005.4
20260510010056 12 326 0.0 0.0 0.00 0.00 0.00 86 1005.4
20260510005604 12 326 0.0 0.0 0.00 0.00 0.00 85 1005.4
20260510005105 12 326 0.0 0.0 0.00 0.00 0.00 85 1005.4
20260510004554 12 326 0.0 0.0 0.00 0.00 0.00 85 1005.4
20260510004055 13 326 0.0 0.0 0.00 0.00 0.00 84 1005.3
20260510003601 13 326 0.0 0.0 0.00 0.00 0.00 84 1005.3
20260510003001 13 326 0.0 0.0 0.00 0.00 0.00 84 1005.3
20260510002505 13 326 0.0 0.0 0.00 0.00 0.00 84 1005.3
20260510002101 13 326 0.0 0.0 0.00 0.00 0.00 83 1005.3
20260510001502 13 326 0.0 0.0 0.00 0.00 0.00 83 1005.3
20260510001005 13 326 0.0 0.0 0.00 0.00 0.00 82 1005.3
20260510000515 13 326 0.0 0.0 0.00 0.00 0.00 81 1005.3
20260510000002 13 326 0.0 0.0 0.00 0.00 0.00 81 1005.3
20260509235504 13 326 0.0 0.0 0.00 0.00 0.00 81 1005.3
20260509235013 14 326 0.0 0.0 0.00 0.00 0.00 81 1005.3
20260509234602 14 326 0.0 0.0 0.00 0.00 0.00 81 1005.3
20260509234103 14 326 0.0 0.0 0.00 0.00 0.00 80 1005.3
20260509233606 14 326 0.0 0.0 0.00 0.00 0.00 80 1005.3
20260509233004 14 326 0.0 0.0 0.00 0.00 0.00 80 1005.3
20260509232507 14 326 0.0 0.0 0.00 0.00 0.00 80 1005.2
20260509232008 14 326 0.0 0.0 0.00 0.00 0.00 80 1005.2
20260509231605 14 326 0.0 0.0 0.00 0.00 0.00 81 1005.2
20260509231005 14 326 0.0 0.0 0.00 0.00 0.00 81 1005.1
20260509230515 14 326 0.0 0.0 0.00 0.00 0.00 80 1005.1
20260509230105 14 326 0.0 0.0 0.00 0.00 0.00 80 1005.1
20260509225502 14 326 0.0 0.0 0.00 0.00 0.00 81 1005.2
20260509225005 14 326 0.0 0.0 0.00 0.00 0.00 81 1005.2
20260509224602 14 326 0.0 0.0 0.00 0.00 0.00 81 1005.2
20260509224105 14 326 0.0 0.0 0.00 0.00 0.00 81 1005.3
20260509223502 14 326 0.0 0.0 0.00 0.00 0.00 81 1005.3
20260509223004 14 326 0.0 0.0 0.00 0.00 0.00 82 1005.3
20260509222506 14 326 0.0 0.0 0.00 0.00 0.00 82 1005.3
20260509222100 14 326 0.0 0.0 0.00 0.00 0.00 82 1005.3
20260509221603 14 326 0.0 0.0 0.00 0.00 0.00 82 1005.3
20260509221002 14 326 0.0 0.0 0.00 0.00 0.00 82 1005.3
20260509220555 14 326 0.0 0.0 0.00 0.00 0.00 82 1005.3
20260509215506 14 326 0.0 0.0 0.00 0.00 0.00 83 1005.4
20260509215005 14 326 0.0 0.0 0.00 0.00 0.00 84 1005.4
20260509214509 14 326 0.0 0.0 0.00 0.00 0.00 83 1005.4
20260509214017 14 326 0.0 0.0 0.00 0.00 0.00 83 1005.3
20260509213503 14 326 0.0 0.0 0.00 0.00 0.00 82 1005.3
20260509213006 14 326 0.0 0.0 0.00 0.00 0.00 82 1005.3
20260509212507 14 326 0.0 0.0 0.00 0.00 0.00 82 1005.1
20260509212103 14 326 0.0 0.0 0.00 0.00 0.00 82 1005.1
20260509211503 14 326 0.0 0.0 0.00 0.00 0.00 82 1005.1
20260509211005 14 326 0.0 0.0 0.00 0.00 0.00 81 1005.2
20260509210506 14 326 0.0 0.0 0.00 0.00 0.00 81 1005.2
20260509210108 14 326 0.0 0.0 0.00 0.00 0.00 80 1005.2
20260509205602 14 326 0.0 0.0 0.00 0.00 0.00 79 1005.2
20260509205002 15 326 0.0 0.0 0.00 0.00 0.00 77 1005.2
20260509204505 15 326 0.0 0.0 0.00 0.00 0.00 77 1005.2
20260509204006 15 326 0.0 0.0 0.00 0.00 0.00 75 1005.6
20260509203511 15 326 0.0 0.0 0.00 0.00 0.00 73 1005.6
20260509203102 15 326 0.0 0.0 0.00 0.00 0.00 71 1005.6
20260509202502 15 326 0.0 0.0 0.00 0.00 0.00 70 1005.2
20260509202008 15 326 0.0 0.0 0.00 0.00 0.00 70 1005.2
20260509201606 15 326 0.0 0.0 0.00 0.00 0.00 70 1005.2
20260509201004 15 326 0.0 0.0 0.00 0.00 0.00 70 1005.5
20260509200602 15 326 0.0 0.0 0.00 0.00 0.00 70 1005.5
20260509200110 15 326 0.0 0.0 0.00 0.00 0.00 70 1005.5
20260509195502 14 326 0.0 0.0 0.00 0.00 0.00 71 1005.4
20260509195004 14 326 0.0 0.0 0.00 0.00 0.00 72 1005.4
20260509194558 14 326 0.0 0.0 0.00 0.00 0.00 72 1005.4
20260509194002 14 318 0.0 0.0 0.00 0.00 0.00 72 1005.6
20260509193509 14 311 0.0 0.0 0.00 0.00 0.00 72 1005.6
20260509193007 14 311 0.0 0.0 0.00 0.00 0.00 73 1005.6
20260509192558 14 306 0.0 0.0 0.00 0.00 0.00 73 1005.9
20260509192102 14 306 0.0 0.0 0.00 0.00 0.00 73 1005.9
20260509191606 14 305 0.0 0.0 0.00 0.00 0.00 73 1005.9
20260509191002 14 301 0.0 0.0 0.00 0.00 0.00 72 1006.0
20260509190505 14 325 0.0 0.0 0.00 0.00 0.00 72 1006.0
20260509190011 14 325 0.0 0.0 0.00 0.00 0.00 73 1006.0
20260509185603 14 325 0.0 0.0 0.00 0.00 0.00 73 1006.3
20260509185005 14 325 0.0 0.0 0.00 0.00 0.00 73 1006.3
20260509184506 14 325 0.0 0.0 0.00 0.00 0.00 72 1006.3
20260509184009 14 325 0.0 0.0 0.00 0.00 0.00 72 1006.4
20260509183603 15 325 0.0 0.0 0.00 0.00 0.00 73 1006.4
20260509183008 15 325 0.0 0.0 0.00 0.00 0.00 73 1006.4
20260509182601 15 325 0.0 0.0 0.00 0.00 0.00 73 1006.4
20260509182104 15 313 0.0 0.0 0.00 0.00 0.00 74 1006.4
20260509181502 15 313 0.0 0.0 0.00 0.00 0.00 74 1006.4
20260509181006 15 313 0.0 0.0 0.00 0.00 0.00 74 1006.5
20260509180559 15 313 0.0 0.0 0.00 0.00 0.00 74 1006.5
20260509180110 15 296 0.0 0.0 0.00 0.00 0.00 73 1006.5
20260509175606 15 296 0.0 0.0 0.00 0.00 0.00 73 1006.5
20260509175004 15 296 0.0 0.0 0.00 0.00 0.00 72 1006.5
20260509174556 15 296 0.0 0.0 0.00 0.00 0.00 70 1006.5
20260509174058 15 296 0.0 0.0 0.00 0.00 0.00 69 1006.5
20260509173602 15 296 0.0 0.0 0.00 0.00 0.00 68 1006.5
20260509173058 15 296 0.0 0.0 0.00 0.00 0.00 67 1006.5
20260509172544 15 296 0.0 0.0 0.00 0.00 0.00 67 1006.4
20260509172049 15 296 0.0 0.0 0.00 0.00 0.00 66 1006.4
20260509171551 15 296 0.0 0.0 0.00 0.00 0.00 65 1006.4
20260509171100 15 296 0.0 0.0 0.00 0.00 0.00 65 1006.3
20260509170601 15 296 0.0 0.0 0.00 0.00 0.00 64 1006.3
20260509170105 15 296 0.0 0.0 0.00 0.00 0.00 63 1006.3
20260509165552 15 296 0.0 0.0 0.00 0.00 0.00 64 1006.4
20260509165056 15 296 0.0 0.0 0.00 0.00 0.00 64 1006.4
20260509164559 15 296 0.0 0.0 0.00 0.00 0.00 63 1006.4